Regional Weather Roundup
Issued by NWS

Home | Current Version | Previous Version | Graphics & Text | Print | Product List | Glossary On
Versions: 1 2 3 4 5 6 7 8 9 10 11 12 13 14 15 16 17 18 19 20 21 22 23 24 25 26 27 28 29 30 31 32 33 34 35 36 37 38 39 40 41 42 43 44 45 46 47 48 49 50
000
ASUS43 KLOT 021800
RWRIL

ILLINOIS REGIONAL WEATHER ROUNDUP
NATIONAL WEATHER SERVICE CHICAGO/ROMEOVILLE IL
100 PM CDT TUE SEP 02 2014

NOTE: "FAIR" INDICATES FEW OR NO CLOUDS BELOW 12,000 FEET WITH NO
SIGNIFICANT WEATHER AND/OR OBSTRUCTIONS TO VISIBILITY.

* THESE STATIONS ARE NOT UNDER NWS QUALITY CONTROL. THEY ALSO MAY NOT
  REPORT WEATHER SUCH AS PRECIPITATION OR FOG.

ILZ001-002-007-009-015-016-024-021900-
NORTHWEST ILLINOIS

CITY           SKY/WX    TMP DP  RH WIND       PRES   REMARKS
MOLINE         SUNNY     78  60  53 SW6       29.94S
6HR MIN TEMP:  61; 6HR MAX TEMP:  78;

STERLING*      SUNNY     79  59  50 CALM      29.93F HX  80
$$

ILZ003-004-008-010-011-017-018-021900-
NORTH CENTRAL ILLINOIS

CITY           SKY/WX    TMP DP  RH WIND       PRES   REMARKS
ROCKFORD       MOSUNNY   77  59  53 W8        29.93R
6HR MIN TEMP:  61; 6HR MAX TEMP:  77; 6HR PCP: TRACE;

$$

ILZ005-006-012>014-019>023-021900-
NORTHEAST ILLINOIS

CITY           SKY/WX    TMP DP  RH WIND       PRES   REMARKS
CHICAGO-OHARE  PTSUNNY   80  56  43 W9        29.89F HX  80
6HR MIN TEMP:  67; 6HR MAX TEMP:  80;

CHICAGO-MIDWAY MOSUNNY   82  58  43 W10       29.89S HX  82
6HR MIN TEMP:  69; 6HR MAX TEMP:  83;

AURORA         MOSUNNY   80  58  46 W9        29.91F HX  80
6HR MIN TEMP:  64; 6HR MAX TEMP:  80;

WAUKEGAN       MOSUNNY   79  57  46 SW9       29.89S HX  80
6HR MIN TEMP:  63; 6HR MAX TEMP:  79;

DUPAGE AIRPORT MOSUNNY   80  58  46 W9        29.90F HX  80
6HR MIN TEMP:  64; 6HR MAX TEMP:  80;

WHEELING       SUNNY     81  57  43 NW8       29.90F HX  81
6HR MIN TEMP:  68; 6HR MAX TEMP:  82;

NORTHERLY ISL    N/A     74  66  76 E5          N/A
$$

LMZ740>746-021900-
SOUTHERN LAKE MICHIGAN

STATION/POSITION SKY/WX   TEMP    WIND        PRES    VSBY  WAVE
                          AIR SEA DIR/SP/G                  HT/PER
                          (F)     (DEG/KT/KT) (MB)    (MI)  (FT/S)
SOUTHERN BUOY              71 72  200/  2/  4 1012.4F         1
WAUKEGAN HARBOR            74     290/  8/ 11   N/A
HARRISON CRIB              71      90/  4/  5   N/A
BURNHAM HARBOR             73      80/  4/  5   N/A
CALUMET HARBOR             74      60/  7/  9 1011.2F
MICHIGAN CITY              72     260/  6/  7   N/A
MICHIGAN CITY 6N           73 73  280/  4/  6   N/A           1
ST. JOSEPH                 72 72  220/  6/  8   N/A           1/ 2
$$

ILZ025>027-034>036-040-047-049-050-058-095>099-021900-
WEST-CENTRAL ILLINOIS

CITY           SKY/WX    TMP DP  RH WIND       PRES   REMARKS
QUINCY         PTSUNNY   79  66  64 NW7       29.97R HX  81
MACOMB*        MOSUNNY   79  65  62 W6        29.97S HX  81
$$

ILZ028>032-037-038-041>044-048-051>054-059>061-021900-
CENTRAL ILLINOIS

CITY           SKY/WX    TMP DP  RH WIND       PRES   REMARKS
DECATUR        CLOUDY    76  68  76 W5        29.96S
PEORIA         PTSUNNY   81  66  60 VRB6      29.94R HX  83
6HR MIN TEMP:  72; 6HR MAX TEMP:  82; 6HR PCP: TRACE;

SPRINGFIELD    CLOUDY    78  69  73 MISG      29.96S HX  80
6HR MIN TEMP:  70; 6HR MAX TEMP:  79;

TAYLORVILLE    NOT AVBL
$$

ILZ033-039-045-046-055>057-062-063-021900-
EAST-CENTRAL ILLINOIS

CITY           SKY/WX    TMP DP  RH WIND       PRES   REMARKS
CHAMPAIGN      CLOUDY    75  69  81 SW7       29.96S
MATTOON        CLOUDY    76  68  76 W9        29.96S
$$

ILZ079-100>102-021900-
SOUTHWEST ILLINOIS

CITY           SKY/WX    TMP DP  RH WIND       PRES   REMARKS
ALTON          PTSUNNY   77  72  83 W8        29.98
BELLEVILLE     CLOUDY    78  73  84 W7        29.98R HX  81
CAHOKIA*       CLOUDY    78  71  79 W5        29.98R HX  80
$$

ILZ064>066-069>071-074>076-080>082-084>086-088>090-092>094-021900-
SOUTH-CENTRAL ILLINOIS

CITY           SKY/WX    TMP DP  RH WIND       PRES   REMARKS
CARBONDALE     CLOUDY    82  69  64 W7        29.98R HX  85
6HR MIN TEMP:  72; 6HR MAX TEMP:  82; 6HR PCP: TRACE;

MARION         CLOUDY    82  70  65 W14       29.99R HX  86
MT. VERNON     CLOUDY    79  70  73 W8        29.98R HX  81
$$

ILZ067-068-072-073-078-083-087-091-021900-
SOUTHEAST ILLINOIS

CITY           SKY/WX    TMP DP  RH WIND       PRES   REMARKS
LAWRENCEVILLE  CLOUDY    75  70  84 NW7       29.96S
ROBINSON*      CLOUDY    76  73  91 NW6       29.97R
$$

ABBREVIATIONS USED IN REMARKS
   TC - TEMPERATURE IN CELSIUS
  WCI - WIND CHILL INDEX
   HX - HEAT INDEX
  VSB - VISIBILITY
$$



USA.gov is the U.S. government's official web portal to all federal, state and local government web resources and services.